TITAN 34D TRANSTAGE DEB, 23619

Orbit data source: Space-Track

TITAN 34D TRANSTAGE DEB, 23619 is space debris in HEO originally from a launch on Fri, 02 Sep 1988 UTC launched from the Air Force Eastern Test Range (AFETR). Debris objects in space refer to the collection of defunct objects orbiting the Earth. Examples of debris include non-operational satellites, rocket bodies, and fragments generated from explosions, collisions, or faulty payload assembly.

Loading next visibility...
Identifier
23619, 1988-077N
Orbit
HEO
Country
Flag of USUS
Related business
Manufacturer
Unknown
Mission
Spacecraft
Bus & Motor
Unknown
Mass
Unknown
Launch date (UTC)
1988-09-02 (38 years ago)
Launch vehicle
Unknown
Launch site
Air Force Eastern Test Range (AFETR)
Object type
Payload
Rocket body
Debris
Shape & HBR
Unknown shape, 0.2 m
Radar Cross Section
Medium (>0.1 m² and <1 m²)

Expand to show TLE details & history
Last TLE update: 1 week ago

TLE from 1 week ago
0 TITAN 34D TRANSTAGE DEB
1 23619U 88077N   26164.42174014 -.00000411  00000-0  31608-3 0  9991
2 23619  26.4994 142.3399 7363142 229.1732  39.2227  2.01485091 10444
Epoch: 2026-06-13T10:07Z
TLE epoch observation values (Epoch: 2026-06-13T10:07:18.348Z)
Latitude
-0.0002°
Longitude
88.60266°
Altitude
16,960.451 km
Speed
4.371 km/s
True Right ascension
09h 28m 39s
True Declination
0° 00' 01"
Sunlit
Object was in daylight at epoch
Visualization orbit readout
Latitude
Unknown
Longitude
Unknown
Altitude
Unknown
Speed
Unknown
Apparent Right ascension
Unknown
Apparent Declination
Unknown
Sunlit
N/A
Visualization observer readout
Local Sidereal Time
23:08:27
Azimuth
Unknown
Elevation
Unknown
Doppler factor
Unknown
Orbital elements
Apogee altitude
39,604.822 km
Perigee altitude
605.077 km
Semi-major axis
26,483.086 km
Eccentricity
0.73631
Inclination
26.4994°
RAAN
142.3399°
Arg. of periapsis
229.1732°
True anomaly
130.8532°
Mean anomaly
39.2227°
Eccentric anomaly
80.8767°
Mean motion
0.50361 °/min
Orbital period
714.85 mins
BSTAR
0.00031608
Loading maneuver chart data...
Computing Atmospheric mass density...

Documentation

Showing up to 5 results
|